Time,TemperatureF,DewpointF,PressureIn,WindDirection,WindDirectionDegrees,WindSpeedMPH,WindSpeedGustMPH,Humidity,HourlyPrecipIn,Conditions,Clouds,dailyrainin,SoftwareType,DateUTC
2013-01-29 08:54:00,25.4,11.5,30.11,North,9,5.0,13.0,55,0.00,,,0.00,vanprod-2.3,2013-01-29 15:54:00,
2013-01-29 09:18:00,26.4,12.4,30.10,North,10,10.0,13.0,55,0.00,,,0.00,vanprod-2.3,2013-01-29 16:18:00,
2013-01-29 09:30:00,27.0,11.7,30.09,North,10,12.0,12.0,52,0.00,,,0.00,vanprod-2.3,2013-01-29 16:30:00,
2013-01-29 09:36:00,27.3,11.1,30.09,North,10,12.0,12.0,50,0.00,,,0.00,vanprod-2.3,2013-01-29 16:36:00,
2013-01-29 09:40:00,27.5,11.8,30.07,North,10,10.0,14.0,51,0.00,,,0.00,vanprod-2.3,2013-01-29 16:40:00,
2013-01-29 09:42:00,27.6,12.3,30.07,North,10,4.0,7.0,52,0.00,,,0.00,vanprod-2.3,2013-01-29 16:42:00,
2013-01-29 09:47:00,27.9,12.1,30.07,North,10,9.0,14.0,51,0.00,,,0.00,vanprod-2.3,2013-01-29 16:47:00,
2013-01-29 09:54:00,27.9,12.6,30.08,North,10,8.0,17.0,52,0.00,,,0.00,vanprod-2.3,2013-01-29 16:54:00,
2013-01-29 10:00:00,28.1,12.3,30.08,North,10,8.0,14.0,51,0.00,,,0.00,vanprod-2.3,2013-01-29 17:00:00,
2013-01-29 10:06:00,28.1,11.4,30.08,North,10,10.0,16.0,49,0.00,,,0.00,vanprod-2.3,2013-01-29 17:06:00,
2013-01-29 10:12:00,28.4,11.7,30.09,North,10,10.0,17.0,49,0.00,,,0.00,vanprod-2.3,2013-01-29 17:12:00,
2013-01-29 10:18:00,28.5,11.3,30.07,North,10,7.0,12.0,48,0.00,,,0.00,vanprod-2.3,2013-01-29 17:18:00,
2013-01-29 10:24:00,28.8,11.6,30.08,North,10,5.0,13.0,48,0.00,,,0.00,vanprod-2.3,2013-01-29 17:24:00,
2013-01-29 10:30:00,29.0,11.3,30.08,North,10,10.0,13.0,47,0.00,,,0.00,vanprod-2.3,2013-01-29 17:30:00,
2013-01-29 10:36:00,29.1,10.9,30.07,North,10,8.0,13.0,46,0.00,,,0.00,vanprod-2.3,2013-01-29 17:36:00,
2013-01-29 10:42:00,29.5,10.8,30.06,North,10,5.0,13.0,45,0.00,,,0.00,vanprod-2.3,2013-01-29 17:42:00,
2013-01-29 10:48:00,29.5,12.2,30.06,North,10,4.0,7.0,48,0.00,,,0.00,vanprod-2.3,2013-01-29 17:48:00,
2013-01-29 10:54:00,29.8,12.0,30.06,North,10,9.0,11.0,47,0.00,,,0.00,vanprod-2.3,2013-01-29 17:54:00,
2013-01-29 11:00:00,30.1,12.8,30.06,North,10,12.0,14.0,48,0.00,,,0.00,vanprod-2.3,2013-01-29 18:00:00,
2013-01-29 11:06:00,30.0,12.2,30.06,North,10,5.0,13.0,47,0.00,,,0.00,vanprod-2.3,2013-01-29 18:06:00,
2013-01-29 11:12:00,30.0,12.2,30.06,North,10,10.0,13.0,47,0.00,,,0.00,vanprod-2.3,2013-01-29 18:12:00,
2013-01-29 11:18:00,30.3,13.4,30.06,North,10,9.0,13.0,49,0.00,,,0.00,vanprod-2.3,2013-01-29 18:18:00,
2013-01-29 11:24:00,30.6,13.3,30.06,North,10,9.0,12.0,48,0.00,,,0.00,vanprod-2.3,2013-01-29 18:24:00,
2013-01-29 11:30:00,31.2,13.8,30.05,North,10,3.0,11.0,48,0.00,,,0.00,vanprod-2.3,2013-01-29 18:30:00,
2013-01-29 11:36:00,31.2,12.8,30.05,North,10,8.0,14.0,46,0.00,,,0.00,vanprod-2.3,2013-01-29 18:36:00,
2013-01-29 11:42:00,31.3,14.4,30.05,North,10,6.0,12.0,49,0.00,,,0.00,vanprod-2.3,2013-01-29 18:42:00,
2013-01-29 11:48:00,31.5,13.1,30.04,North,10,7.0,13.0,46,0.00,,,0.00,vanprod-2.3,2013-01-29 18:48:00,
2013-01-29 11:54:00,31.5,13.6,30.05,North,10,4.0,6.0,47,0.00,,,0.00,vanprod-2.3,2013-01-29 18:54:00,
2013-01-29 12:00:00,32.1,14.2,30.04,North,10,15.0,17.0,47,0.00,,,0.00,vanprod-2.3,2013-01-29 19:00:00,
2013-01-29 12:06:00,32.1,14.2,30.04,North,10,8.0,19.0,47,0.00,,,0.00,vanprod-2.3,2013-01-29 19:06:00,
2013-01-29 12:12:00,32.5,14.5,30.02,North,10,8.0,13.0,47,0.00,,,0.00,vanprod-2.3,2013-01-29 19:12:00,
2013-01-29 12:18:00,32.8,14.8,30.02,North,10,3.0,7.0,47,0.00,,,0.00,vanprod-2.3,2013-01-29 19:18:00,
2013-01-29 12:24:00,33.1,14.6,30.02,North,10,11.0,13.0,46,0.00,,,0.00,vanprod-2.3,2013-01-29 19:24:00,
2013-01-29 12:30:00,32.9,14.9,30.02,North,10,9.0,12.0,47,0.00,,,0.00,vanprod-2.3,2013-01-29 19:30:00,
2013-01-29 12:36:00,32.9,15.4,30.01,North,10,6.0,12.0,48,0.00,,,0.00,vanprod-2.3,2013-01-29 19:36:00,
2013-01-29 12:42:00,33.2,16.1,30.00,North,10,7.0,10.0,49,0.00,,,0.00,vanprod-2.3,2013-01-29 19:42:00,
2013-01-29 12:48:00,33.1,14.6,30.01,North,10,4.0,13.0,46,0.00,,,0.00,vanprod-2.3,2013-01-29 19:48:00,
2013-01-29 12:54:00,33.2,15.7,30.01,North,10,8.0,11.0,48,0.01,,,0.01,vanprod-2.3,2013-01-29 19:54:00,
2013-01-29 12:58:00,33.2,15.7,30.00,North,10,8.0,11.0,48,0.04,,,0.04,vanprod-2.3,2013-01-29 19:58:00,
2013-01-29 13:04:00,33.1,15.1,30.01,North,10,2.0,11.0,47,0.07,,,0.08,vanprod-2.3,2013-01-29 20:04:00,
2013-01-29 13:10:00,33.4,15.8,30.01,North,10,4.0,13.0,48,0.07,,,0.11,vanprod-2.3,2013-01-29 20:10:00,
2013-01-29 13:16:00,33.8,15.2,29.99,North,10,6.0,8.0,46,0.06,,,0.13,vanprod-2.3,2013-01-29 20:16:00,
2013-01-29 13:22:00,34.0,15.4,29.98,North,10,10.0,18.0,46,0.04,,,0.15,vanprod-2.3,2013-01-29 20:22:00,
2013-01-29 13:28:00,34.1,15.5,29.98,North,10,14.0,18.0,46,0.03,,,0.16,vanprod-2.3,2013-01-29 20:28:00,
2013-01-29 13:34:00,34.1,15.5,29.98,North,10,7.0,11.0,46,0.04,,,0.19,vanprod-2.3,2013-01-29 20:34:00,
2013-01-29 13:40:00,33.2,15.7,30.00,North,10,6.0,13.0,48,0.03,,,0.19,vanprod-2.3,2013-01-29 20:40:00,
2013-01-29 13:46:00,34.3,16.7,29.98,North,10,4.0,11.0,48,0.03,,,0.21,vanprod-2.3,2013-01-29 20:46:00,
2013-01-29 13:52:00,35.0,15.8,29.97,North,10,2.0,7.0,45,0.04,,,0.23,vanprod-2.3,2013-01-29 20:52:00,
2013-01-29 13:58:00,34.9,16.2,29.97,North,10,5.0,16.0,46,0.03,,,0.24,vanprod-2.3,2013-01-29 20:58:00,
2013-01-29 14:04:00,34.9,16.7,29.97,North,10,16.0,18.0,47,0.04,,,0.26,vanprod-2.3,2013-01-29 21:04:00,
2013-01-29 14:10:00,34.6,16.9,29.96,North,10,9.0,16.0,48,0.04,,,0.28,vanprod-2.3,2013-01-29 21:10:00,
2013-01-29 14:16:00,34.7,16.5,29.96,North,10,8.0,14.0,47,0.03,,,0.29,vanprod-2.3,2013-01-29 21:16:00,
2013-01-29 14:22:00,35.2,17.0,29.96,North,10,10.0,13.0,47,0.04,,,0.31,vanprod-2.3,2013-01-29 21:22:00,
2013-01-29 14:28:00,35.3,17.1,29.95,North,10,7.0,14.0,47,0.04,,,0.32,vanprod-2.3,2013-01-29 21:28:00,
2013-01-29 14:34:00,35.8,17.6,29.95,North,10,8.0,13.0,47,0.03,,,0.33,vanprod-2.3,2013-01-29 21:34:00,
2013-01-29 14:40:00,35.6,16.9,29.95,North,10,10.0,17.0,46,0.02,,,0.34,vanprod-2.3,2013-01-29 21:40:00,
2013-01-29 14:46:00,35.5,15.8,29.96,North,10,8.0,19.0,44,0.03,,,0.36,vanprod-2.3,2013-01-29 21:46:00,
2013-01-29 14:52:00,35.9,16.6,29.96,North,10,15.0,21.0,45,0.03,,,0.37,vanprod-2.3,2013-01-29 21:52:00,
2013-01-29 14:58:00,35.9,17.2,29.96,North,10,4.0,18.0,46,0.02,,,0.38,vanprod-2.3,2013-01-29 21:58:00,
2013-01-29 15:04:00,37.0,18.7,29.94,North,10,10.0,20.0,47,0.03,,,0.39,vanprod-2.3,2013-01-29 22:04:00,
2013-01-29 15:10:00,37.2,18.3,29.93,North,10,9.0,11.0,46,0.02,,,0.40,vanprod-2.3,2013-01-29 22:10:00,
2013-01-29 15:16:00,37.0,17.6,29.94,North,10,13.0,18.0,45,0.02,,,0.41,vanprod-2.3,2013-01-29 22:16:00,
2013-01-29 15:22:00,36.9,17.6,29.94,North,10,8.0,21.0,45,0.02,,,0.42,vanprod-2.3,2013-01-29 22:22:00,
2013-01-29 15:28:00,36.6,18.3,29.95,North,8,12.0,12.0,47,0.01,,,0.42,vanprod-2.3,2013-01-29 22:28:00,
2013-01-29 15:34:00,36.6,18.3,29.95,North,8,12.0,12.0,47,0.00,,,0.42,vanprod-2.3,2013-01-29 22:34:00,